[[{"header":{"parameterUnit":"m.s-1","parameterCategory":2,"la1":30.2991,"la2":30.254,"lo1":-89.0895,"lo2":-89.0444,"dy":0.0017,"dx":0.0017,"nx":28,"ny":28,"refTime":"2024-06-06T09:00:00:Z","depth":"0","parameterNumber":2,"parameterNumberName":"U-component_of_CURRENTS"},"data":[0,0,0,0,0,0,0,0,0,0,0,0,0,0,0,0,0,0,0,0,0,0,0,0,0,0,0,0,0,0,0,0,0,0,0,0,0,0,0,0,0,0,0,0,0,0,0,0,0,0,0,0,0,0,0,0,0,0,0.2142,0.2142,0,0.2119,0.2119,0.2118,0.2088,0.2088,0.2088,0.2087,0.2036,0.2035,0.2034,0,0,0,0,0,0,0,0,0,0,0,0,0,0.2162,0.2161,0.2142,0.2142,0.2142,0.2119,0.2119,0.2118,0.2088,0.2088,0.2088,0.2087,0.2037,0.2035,0.2034,0,0,0,0,0,0,0,0,0,0,0,0,0,0.2145,0.2161,0.2142,0.2126,0.2124,0.2119,0.2119,0.2118,0.2088,0.2088,0.2087,0.2087,0.2037,0.2035,0.2034,0.2034,0,0,0.2029,0.2028,0,0,0,0,0,0,0,0,0.2146,0.2145,0.2128,0.2127,0.2125,0.2108,0.2107,0.2089,0.2089,0.21,0.2087,0.2087,0.2059,0.2056,0.205,0.2031,0.2029,0.2029,0.2028,0.2027,0.2027,0,0,0,0,0,0,0,0.2148,0.2145,0.2131,0.2128,0.2126,0.212,0.2117,0.2103,0.208,0.2099,0.2097,0.2098,0.2058,0.2052,0.2049,0.2028,0.2029,0.2028,0.2027,0.2026,0.2038,0.2039,0,0,0,0,0,0,0.2155,0.2146,0.2132,0.213,0.2137,0.212,0.2117,0.2112,0.2081,0.2077,0.2098,0.2096,0.2055,0.2051,0.2047,0.2067,0.2027,0.2026,0.2025,0.2037,0.2038,0.2039,0,0,0,0,0,0,0.2155,0.2153,0.2133,0.214,0.2137,0.2121,0.2116,0.2112,0.2111,0.2081,0.2076,0.2102,0.2054,0.2049,0.2046,0.2064,0.2025,0.2024,0.2035,0.2037,0.2039,0.2093,0,0,0,0,0,0,0.2156,0.2153,0.2154,0.214,0.2137,0.2137,0.2116,0.2112,0.2113,0.211,0.2082,0.2077,0.2053,0.2049,0.2045,0.2061,0.2022,0.2033,0.2036,0.2038,0.2089,0.2096,0.2102,0,0,0,0,0,0.2156,0.2155,0.2154,0.2153,0.2138,0.2138,0.2136,0.2121,0.2114,0.2118,0.2102,0.2078,0.2061,0.2048,0.2043,0.2059,0.2032,0.2035,0.2038,0.2087,0.2095,0.2102,0,0,0,0,0,0,0.2161,0.2152,0.215,0.2146,0.2148,0.2134,0.2133,0.2129,0.2121,0.2116,0.2089,0.2083,0.209,0.2071,0.2057,0.2072,0.2045,0.2047,0.2084,0.2091,0.2098,0.21,0.2021,0,0,0,0,0,0.2165,0.2162,0.2159,0.2157,0.2159,0.215,0.2149,0.2143,0.2134,0.2129,0.211,0.2097,0.2098,0.2091,0.2082,0.2086,0.2087,0.2096,0.2102,0.2108,0.2108,0.2142,0.2151,0.2049,0.2049,0.2049,0,0,0.2165,0.2162,0.2158,0.2158,0.2155,0.2161,0.2148,0.215,0.2156,0.2125,0.2122,0.2117,0.2106,0.2113,0.2114,0.2097,0.2139,0.2111,0.2116,0.2113,0.2146,0.2156,0.2165,0.2051,0.205,0.205,0,0,0.2165,0.2163,0.2162,0.2168,0.2172,0.2171,0.2177,0.217,0.2168,0.2173,0.2159,0.2168,0.2153,0.2153,0.2153,0.2191,0.2175,0.2189,0.2217,0.2251,0.2259,0.2267,0.2285,0.2294,0.2188,0.2188,0.2188,0,0.2168,0.2164,0.2165,0.2171,0.2175,0.218,0.2186,0.2191,0.2184,0.2189,0.2178,0.2186,0.2176,0.2199,0.2213,0.2205,0.2216,0.2187,0.2259,0.2267,0.2273,0.229,0.2299,0.2191,0.2191,0.2191,0.219,0,0.2168,0.217,0.2172,0.2181,0.219,0.2196,0.2208,0.2218,0.222,0.2224,0.2246,0.2241,0.2246,0.2252,0.2242,0.2287,0.2277,0.2267,0.2239,0.2287,0.2302,0.231,0.2196,0.2195,0.2194,0.2193,0,0,0.2156,0.2168,0.217,0.2173,0.2195,0.2198,0.2225,0.2245,0.2262,0.227,0.2295,0.2309,0.231,0.2311,0.2307,0.2334,0.2395,0.2322,0.2323,0.2339,0.2463,0.2402,0.2405,0.24,0.2402,0.2403,0.2455,0,0.2155,0.2161,0.2173,0.2185,0.2188,0.2212,0.2233,0.2258,0.2279,0.2305,0.2327,0.2345,0.2332,0.2341,0.2371,0.239,0.2419,0.2381,0.2415,0.2416,0.2354,0.2414,0.2277,0.2307,0.2463,0.2465,0.2466,0,0.2147,0.2152,0.2159,0.2179,0.2184,0.2199,0.2236,0.2258,0.231,0.2328,0.2364,0.238,0.2426,0.2408,0.2469,0.2447,0.246,0.2473,0.2475,0.2402,0.237,0.2284,0.2316,0.2249,0.2478,0.2477,0.2476,0,0.2121,0.214,0.2142,0.2149,0.2178,0.2193,0.2216,0.2263,0.2285,0.2349,0.2376,0.2427,0.2454,0.2493,0.2517,0.2503,0.2582,0.2563,0.252,0.2515,0.2396,0.2377,0.2362,0.261,0.261,0.261,0.261,0,0.2105,0.2106,0.213,0.213,0.214,0.2174,0.2198,0.2233,0.2292,0.2322,0.2383,0.2418,0.248,0.2527,0.2545,0.2559,0.2606,0.2536,0.2531,0.241,0.2393,0.2325,0.2296,0.2612,0.2612,0.2611,0.2611,0,0.2072,0.2087,0.2088,0.2117,0.2124,0.2133,0.2177,0.2198,0.2263,0.2312,0.2336,0.2426,0.2488,0.2538,0.2603,0.2581,0.2518,0.2597,0.2444,0.242,0.2294,0.2272,0.2149,0.2093,0.2557,0.2556,0.2555,0,0.2053,0.205,0.2067,0.2066,0.2077,0.2096,0.211,0.2172,0.2203,0.2306,0.233,0.2417,0.246,0.2534,0.2528,0.2551,0.2477,0.242,0.2363,0.2277,0.2251,0.2149,0.2104,0.2232,0.2228,0.2225,0.2223,0,0.2021,0.2027,0.2029,0.2024,0.2031,0.2038,0.207,0.2092,0.2172,0.2213,0.2286,0.2335,0.2409,0.2375,0.24,0.2389,0.2268,0.236,0.2315,0.2031,0.1875,0.1821,0.2207,0.2197,0.22,0.2202,0.2203,0.2204,0.1997,0.1986,0.1986,0.1972,0.1978,0.1978,0.1957,0.2003,0.2032,0.2074,0.2189,0.221,0.2223,0.224,0.2215,0.2081,0.2104,0.1989,0.1983,0.1899,0.1791,0.2115,0.2072,0.2073,0.2075,0.2076,0.2078,0,0.1954,0.1942,0.1932,0.1905,0.1875,0.1903,0.1917,0.1887,0.1877,0.1956,0.1995,0.1993,0.1937,0.1932,0.1825,0.1718,0.1631,0.1656,0.1489,0.1479,0.1806,0.1739,0.1567,0.1567,0.1567,0.1567,0.1567,0.1567,0.1935,0.1897,0.1878,0.1803,0.1781,0.1717,0.1704,0.1679,0.171,0.1688,0.1678,0.1716,0.1728,0.1618,0.1472,0.1426,0.1314,0.1202,0.126,0.1498,0.1529,0.1558,0.1489,0.1267,0.1267,0.0837,0.0833,0.0831]},{"header":{"parameterUnit":"m.s-1","parameterCategory":2,"la1":30.2991,"la2":30.254,"lo1":-89.0895,"lo2":-89.0444,"dy":0.0017,"dx":0.0017,"nx":28,"ny":28,"refTime":"2024-06-06T09:00:00:Z","depth":"0","parameterNumber":3,"parameterNumberName":"V-component_of_CURRENTS"},"data":[0,0,0,0,0,0,0,0,0,0,0,0,0,0,0,0,0,0,0,0,0,0,0,0,0,0,0,0,0,0,0,0,0,0,0,0,0,0,0,0,0,0,0,0,0,0,0,0,0,0,0,0,0,0,0,0,0,0,0.0197,0.0197,0,0.0183,0.0182,0.0182,0.0169,0.0169,0.0169,0.0169,0.0144,0.0144,0.0143,0,0,0,0,0,0,0,0,0,0,0,0,0,0.0183,0.0183,0.0197,0.0197,0.0197,0.0183,0.0182,0.0182,0.0169,0.0169,0.0169,0.0168,0.0144,0.0144,0.0143,0,0,0,0,0,0,0,0,0,0,0,0,0,0.0181,0.0184,0.0197,0.0188,0.0187,0.0183,0.0182,0.0182,0.0169,0.0169,0.0169,0.0168,0.0145,0.0144,0.0143,0.0145,0,0,0.0141,0.0141,0,0,0,0,0,0,0,0,0.0182,0.0182,0.019,0.0189,0.0187,0.0177,0.0168,0.0169,0.0169,0.0177,0.0169,0.0168,0.0154,0.0153,0.0152,0.0144,0.0143,0.0141,0.0141,0.014,0.014,0,0,0,0,0,0,0,0.0182,0.0182,0.0192,0.0189,0.0188,0.0174,0.0174,0.0168,0.0168,0.0176,0.0175,0.0172,0.0153,0.0152,0.0151,0.0143,0.0141,0.014,0.014,0.014,0.0134,0.0134,0,0,0,0,0,0,0.0184,0.0183,0.0192,0.0191,0.0183,0.0175,0.0174,0.0181,0.0168,0.0165,0.0173,0.0172,0.0154,0.0152,0.015,0.0161,0.014,0.014,0.0139,0.0134,0.0134,0.0134,0,0,0,0,0,0,0.0184,0.0186,0.0193,0.0186,0.0185,0.0175,0.0183,0.0181,0.0181,0.0165,0.0163,0.0174,0.0153,0.0151,0.015,0.0159,0.0139,0.0139,0.0134,0.0134,0.0134,0.0176,0,0,0,0,0,0,0.0184,0.0186,0.0191,0.0186,0.0186,0.0198,0.0183,0.0181,0.0179,0.0178,0.0166,0.0163,0.0153,0.0151,0.015,0.0158,0.0138,0.0133,0.0134,0.0134,0.0175,0.0178,0.0181,0,0,0,0,0,0.0184,0.0195,0.0192,0.0192,0.0194,0.0198,0.0197,0.0189,0.018,0.0186,0.0176,0.0164,0.0153,0.0151,0.0149,0.0157,0.0133,0.0134,0.0134,0.0173,0.0178,0.0181,0,0,0,0,0,0,0.0191,0.0195,0.0191,0.0202,0.0202,0.0196,0.0199,0.0192,0.0189,0.0186,0.017,0.0167,0.0168,0.0157,0.0155,0.0156,0.014,0.014,0.017,0.0174,0.0177,0.019,0.0138,0,0,0,0,0,0.0195,0.0205,0.0204,0.0213,0.0214,0.0206,0.0206,0.0202,0.0197,0.0196,0.0185,0.0174,0.0169,0.0167,0.0159,0.0163,0.015,0.0165,0.0168,0.0171,0.0179,0.0167,0.017,0.0136,0.0136,0.0136,0,0,0.0199,0.0202,0.0207,0.0214,0.0213,0.0224,0.0206,0.021,0.0221,0.0193,0.0202,0.0185,0.0171,0.0175,0.0174,0.0168,0.0173,0.0172,0.0174,0.0181,0.0168,0.0171,0.0174,0.0137,0.0137,0.0137,0,0,0.0216,0.0217,0.0232,0.0236,0.0238,0.0236,0.0239,0.0236,0.0236,0.0242,0.0223,0.0214,0.0207,0.0199,0.0194,0.021,0.0189,0.0204,0.0234,0.0222,0.0225,0.0227,0.0215,0.0215,0.0208,0.0208,0.0208,0,0.0219,0.0241,0.0236,0.0252,0.026,0.0244,0.0264,0.0264,0.026,0.0265,0.0251,0.0237,0.022,0.0227,0.023,0.0218,0.0207,0.0222,0.0227,0.0229,0.0231,0.0217,0.0218,0.021,0.021,0.0209,0.0209,0,0.0249,0.0265,0.0275,0.0292,0.0299,0.0313,0.0314,0.0319,0.0314,0.031,0.0313,0.0288,0.028,0.0271,0.0256,0.026,0.0247,0.0231,0.022,0.0237,0.0221,0.0221,0.0213,0.0212,0.0211,0.0211,0,0,0.0265,0.0292,0.0296,0.0315,0.0324,0.0337,0.0354,0.037,0.0387,0.0371,0.039,0.0367,0.0345,0.0337,0.0312,0.0301,0.0297,0.0275,0.0273,0.0267,0.0271,0.0271,0.027,0.0282,0.0282,0.0282,0.0255,0,0.0292,0.0333,0.0339,0.0378,0.04,0.0398,0.042,0.0429,0.0429,0.0441,0.0414,0.0418,0.0373,0.0371,0.035,0.0314,0.0298,0.0306,0.0251,0.025,0.0252,0.0271,0.0319,0.0299,0.0255,0.0255,0.0254,0,0.0325,0.0349,0.0394,0.0432,0.0442,0.0462,0.0496,0.0514,0.0521,0.0522,0.0511,0.0487,0.0468,0.0427,0.037,0.0378,0.0328,0.0295,0.0293,0.028,0.025,0.0274,0.03,0.0257,0.0254,0.0254,0.0254,0,0.0349,0.0391,0.0431,0.0443,0.0479,0.0502,0.0521,0.0539,0.0567,0.0573,0.0591,0.0552,0.0545,0.048,0.0401,0.0388,0.034,0.0311,0.0263,0.0262,0.0286,0.0288,0.0271,0.027,0.027,0.0271,0.0271,0,0.0382,0.0413,0.0448,0.0471,0.0525,0.0536,0.059,0.0603,0.0631,0.0678,0.0633,0.066,0.0559,0.0517,0.0431,0.0353,0.0359,0.0277,0.0259,0.0302,0.0305,0.0254,0.0219,0.027,0.027,0.027,0.027,0,0.0405,0.0426,0.0475,0.052,0.0539,0.0578,0.064,0.0679,0.0698,0.0757,0.0765,0.0744,0.0697,0.0592,0.0493,0.0403,0.0304,0.0288,0.0345,0.0335,0.0247,0.0212,0.018,0.0161,0.0235,0.0235,0.0235,0,0.0421,0.0449,0.0511,0.0546,0.057,0.0628,0.0674,0.0711,0.076,0.0819,0.0856,0.083,0.0833,0.0684,0.0537,0.0396,0.0322,0.0321,0.03,0.0259,0.0207,0.019,0.0175,0.0346,0.0347,0.0347,0.0348,0,0.0451,0.0472,0.0513,0.0585,0.0641,0.0708,0.0777,0.0828,0.0886,0.0944,0.1014,0.1025,0.0904,0.0799,0.0597,0.0487,0.0316,0.033,0.0279,0.0291,0.0281,0.025,0.034,0.0354,0.0353,0.0353,0.0353,0.0352,0.0472,0.0506,0.0562,0.0631,0.0697,0.0785,0.0846,0.093,0.1027,0.1125,0.1134,0.1185,0.1025,0.0775,0.0618,0.0385,0.0364,0.0313,0.0273,0.0257,0.0249,0.0352,0.035,0.0349,0.0349,0.0348,0.0348,0,0.0501,0.0543,0.0605,0.0691,0.0763,0.0796,0.0914,0.0986,0.111,0.1215,0.1284,0.1272,0.1086,0.0854,0.0548,0.0373,0.0305,0.027,0.0264,0.0247,0.0338,0.0354,0.0365,0.0365,0.0365,0.0365,0.0365,0.0365,0.0518,0.0579,0.0612,0.0731,0.0792,0.0899,0.0968,0.1083,0.1187,0.1326,0.1391,0.1414,0.1276,0.0756,0.0427,0.0332,0.0217,0.0195,0.0117,0.0187,0.0188,0.0189,0.0196,0.0174,0.0174,0.0075,0.0074,0.0073]}],[{"header":{"parameterUnit":"m.s-1","parameterCategory":2,"la1":30.2991,"la2":30.254,"lo1":-89.0895,"lo2":-89.0444,"dy":0.0017,"dx":0.0017,"nx":28,"ny":28,"refTime":"2024-06-06T09:00:00:Z","depth":"2","parameterNumber":2,"parameterNumberName":"U-component_of_CURRENTS"},"data":[0,0,0,0,0,0,0,0,0,0,0,0,0,0,0,0,0,0,0,0,0,0,0,0,0,0,0,0,0,0,0,0,0,0,0,0,0,0,0,0,0,0,0,0,0,0,0,0,0,0,0,0,0,0,0,0,0,0,0.1828,0.1828,0,0.1822,0.1822,0.1822,0.1811,0.1811,0.1811,0.1811,0.1796,0.1795,0.1795,0,0,0,0,0,0,0,0,0,0,0,0,0,0.1838,0.1837,0.1828,0.1828,0.1828,0.1822,0.1822,0.1822,0.1811,0.1811,0.1811,0.1811,0.1796,0.1795,0.1795,0,0,0,0,0,0,0,0,0,0,0,0,0,0.1832,0.1837,0.1828,0.1823,0.1823,0.1822,0.1822,0.1822,0.1811,0.1811,0.1811,0.1811,0.1796,0.1795,0.1795,0.1794,0,0,0.1793,0.1793,0,0,0,0,0,0,0,0,0.1832,0.1831,0.1824,0.1824,0.1823,0.1819,0.182,0.1813,0.1811,0.1814,0.1811,0.1811,0.1803,0.1802,0.18,0.1794,0.1793,0.1793,0.1793,0.1793,0.1793,0,0,0,0,0,0,0,0.1832,0.1831,0.1824,0.1824,0.1824,0.1824,0.1823,0.1818,0.1808,0.1814,0.1814,0.1815,0.1803,0.18,0.1799,0.1793,0.1793,0.1793,0.1793,0.1792,0.1825,0.1826,0,0,0,0,0,0,0.1835,0.1832,0.1825,0.1824,0.1829,0.1824,0.1823,0.1819,0.1809,0.1807,0.1815,0.1815,0.1801,0.18,0.1799,0.1829,0.1793,0.1792,0.1792,0.1824,0.1825,0.1826,0,0,0,0,0,0,0.1836,0.1835,0.1825,0.1829,0.1828,0.1824,0.182,0.1819,0.1825,0.181,0.1808,0.1824,0.1801,0.1799,0.1808,0.1827,0.1792,0.1792,0.1822,0.1824,0.1826,0.187,0,0,0,0,0,0,0.1836,0.1835,0.1837,0.1829,0.1828,0.1833,0.182,0.1819,0.1827,0.1826,0.1817,0.1815,0.1801,0.1809,0.1808,0.1826,0.1791,0.1821,0.1823,0.1825,0.1867,0.1873,0.1878,0,0,0,0,0,0.1836,0.1836,0.1837,0.1837,0.183,0.1834,0.1833,0.1829,0.1827,0.1833,0.1831,0.1815,0.1822,0.181,0.1808,0.1826,0.182,0.1822,0.1825,0.1865,0.1872,0.1878,0,0,0,0,0,0,0.1841,0.1835,0.1836,0.1835,0.184,0.1832,0.1837,0.1837,0.184,0.1841,0.1826,0.1825,0.1841,0.183,0.1816,0.1844,0.182,0.1822,0.1851,0.1858,0.1863,0.1865,0.1791,0,0,0,0,0,0.1845,0.1843,0.1843,0.1844,0.1847,0.1846,0.1849,0.1848,0.1848,0.1849,0.1842,0.1841,0.1849,0.185,0.185,0.1862,0.1863,0.1875,0.188,0.1885,0.1886,0.1916,0.1924,0.1835,0.1835,0.1835,0,0,0.1846,0.1844,0.1843,0.1846,0.1847,0.1855,0.1847,0.1855,0.1864,0.1847,0.1857,0.1859,0.1858,0.1873,0.188,0.1866,0.1912,0.1888,0.1892,0.1891,0.1919,0.1928,0.1936,0.1837,0.1836,0.1836,0,0,0.1848,0.1849,0.185,0.1857,0.1866,0.1868,0.1874,0.1875,0.188,0.1894,0.1888,0.1905,0.1906,0.1912,0.1915,0.1953,0.1942,0.1955,0.1981,0.201,0.2017,0.2024,0.2038,0.2046,0.1955,0.1955,0.1956,0,0.1853,0.1851,0.1853,0.1861,0.1867,0.1876,0.1885,0.1894,0.1898,0.1908,0.1904,0.1928,0.1927,0.1954,0.1969,0.1965,0.1975,0.1954,0.2017,0.2023,0.2029,0.2043,0.205,0.1958,0.1958,0.1957,0.1957,0,0.1854,0.186,0.1863,0.1874,0.1885,0.1894,0.1909,0.1924,0.1934,0.1943,0.1974,0.1977,0.1992,0.2,0.1996,0.2039,0.203,0.2022,0.1999,0.2041,0.2052,0.2059,0.1961,0.1961,0.196,0.1959,0,0,0.1846,0.186,0.1863,0.1868,0.1892,0.1897,0.1928,0.1952,0.1972,0.199,0.2018,0.2042,0.2048,0.2054,0.2055,0.2079,0.2132,0.2072,0.2072,0.2083,0.2192,0.2124,0.2125,0.2138,0.214,0.2141,0.2183,0,0.1847,0.1856,0.1868,0.1884,0.1889,0.1915,0.1939,0.1967,0.1993,0.2024,0.205,0.2076,0.2068,0.2083,0.2109,0.2129,0.2153,0.2121,0.2151,0.2151,0.2084,0.2132,0.1934,0.195,0.219,0.2191,0.2192,0,0.1841,0.1849,0.186,0.1883,0.1889,0.1907,0.1949,0.1973,0.2028,0.205,0.209,0.2108,0.2155,0.2141,0.2197,0.2179,0.219,0.2201,0.2203,0.2127,0.2097,0.1947,0.1954,0.2204,0.2203,0.2202,0.2201,0,0.182,0.1841,0.1848,0.1856,0.1888,0.1907,0.1932,0.1982,0.2007,0.2074,0.2104,0.2153,0.2184,0.2217,0.224,0.2228,0.2296,0.228,0.2227,0.2222,0.2052,0.2029,0.232,0.232,0.2319,0.2319,0.2319,0,0.1806,0.1812,0.184,0.1842,0.1859,0.1893,0.1924,0.1962,0.2021,0.2053,0.2115,0.2147,0.2208,0.2249,0.2263,0.2267,0.2316,0.2239,0.2233,0.2061,0.204,0.2254,0.2246,0.2321,0.2321,0.232,0.232,0,0.1777,0.1794,0.1801,0.1835,0.1846,0.186,0.191,0.1933,0.2,0.205,0.2076,0.2158,0.2212,0.2257,0.2311,0.2286,0.2303,0.2288,0.2076,0.2044,0.2202,0.2196,0.2237,0.2235,0.2233,0.2232,0.2231,0,0.1759,0.176,0.1786,0.179,0.1806,0.1833,0.185,0.1914,0.1945,0.2044,0.2065,0.2144,0.2173,0.2228,0.221,0.2218,0.2278,0.2029,0.1967,0.2206,0.2197,0.2193,0.2189,0.1761,0.1756,0.1752,0.1749,0,0.1729,0.1741,0.1747,0.1754,0.1768,0.1779,0.1816,0.1835,0.1914,0.1952,0.201,0.2044,0.2097,0.2009,0.2019,0.1997,0.2012,0.1947,0.2262,0.1812,0.1761,0.1751,0.1762,0.1713,0.1717,0.1719,0.1721,0.1723,0.1708,0.1702,0.1711,0.1707,0.172,0.1721,0.1704,0.1745,0.1767,0.1797,0.1892,0.187,0.1877,0.1794,0.1735,0.1684,0.183,0.1727,0.1738,0.1754,0.169,0.1639,0.1556,0.1559,0.1561,0.1563,0.1565,0,0.1668,0.1663,0.1661,0.1645,0.1623,0.1656,0.1668,0.1632,0.1612,0.1658,0.1675,0.1532,0.1455,0.1472,0.1334,0.1323,0.1304,0.1263,0.1214,0.125,0.1282,0.1194,0.0929,0.0927,0.0926,0.0924,0,0,0.165,0.1621,0.1608,0.1546,0.1535,0.1481,0.1468,0.1429,0.1431,0.1379,0.1338,0.1422,0.1443,0.1188,0.1134,0.1008,0.113,0.0965,0.1474,0.1454,0.1485,0.1545,0.145,0,0,0,0,0]},{"header":{"parameterUnit":"m.s-1","parameterCategory":2,"la1":30.2991,"la2":30.254,"lo1":-89.0895,"lo2":-89.0444,"dy":0.0017,"dx":0.0017,"nx":28,"ny":28,"refTime":"2024-06-06T09:00:00:Z","depth":"2","parameterNumber":3,"parameterNumberName":"V-component_of_CURRENTS"},"data":[0,0,0,0,0,0,0,0,0,0,0,0,0,0,0,0,0,0,0,0,0,0,0,0,0,0,0,0,0,0,0,0,0,0,0,0,0,0,0,0,0,0,0,0,0,0,0,0,0,0,0,0,0,0,0,0,0,0,0.0156,0.0156,0,0.0143,0.0143,0.0143,0.0133,0.0133,0.0133,0.0133,0.0112,0.0112,0.0111,0,0,0,0,0,0,0,0,0,0,0,0,0,0.0144,0.0145,0.0156,0.0156,0.0156,0.0143,0.0143,0.0143,0.0133,0.0133,0.0133,0.0133,0.0112,0.0112,0.0111,0,0,0,0,0,0,0,0,0,0,0,0,0,0.0143,0.0145,0.0156,0.0149,0.0148,0.0143,0.0143,0.0143,0.0133,0.0133,0.0133,0.0133,0.0112,0.0112,0.0111,0.0113,0,0,0.0109,0.0109,0,0,0,0,0,0,0,0,0.0143,0.0144,0.015,0.0149,0.0148,0.0139,0.0131,0.0132,0.0134,0.014,0.0133,0.0133,0.012,0.0119,0.0118,0.0112,0.0111,0.0109,0.0109,0.0109,0.0109,0,0,0,0,0,0,0,0.0143,0.0144,0.0152,0.015,0.0149,0.0136,0.0136,0.0131,0.0132,0.0139,0.0138,0.0136,0.0119,0.0119,0.0118,0.0111,0.0109,0.0109,0.0109,0.0108,0.0103,0.0103,0,0,0,0,0,0,0.0145,0.0144,0.0152,0.0151,0.0144,0.0137,0.0137,0.0143,0.0132,0.013,0.0136,0.0135,0.012,0.0118,0.0117,0.0126,0.0109,0.0108,0.0108,0.0103,0.0103,0.0103,0,0,0,0,0,0,0.0145,0.0146,0.0153,0.0146,0.0146,0.0137,0.0144,0.0143,0.0143,0.0129,0.0127,0.0137,0.012,0.0118,0.0117,0.0125,0.0108,0.0107,0.0102,0.0103,0.0103,0.0139,0,0,0,0,0,0,0.0145,0.0147,0.0151,0.0147,0.0146,0.0157,0.0144,0.0143,0.0141,0.014,0.013,0.0128,0.0119,0.0118,0.0117,0.0124,0.0107,0.0102,0.0103,0.0103,0.0138,0.0141,0.0143,0,0,0,0,0,0.0145,0.0154,0.0152,0.0152,0.0154,0.0157,0.0156,0.0149,0.0141,0.0147,0.0139,0.0128,0.0119,0.0118,0.0116,0.0123,0.0102,0.0103,0.0103,0.0137,0.014,0.0143,0,0,0,0,0,0,0.0151,0.0154,0.0151,0.0161,0.0161,0.0155,0.0158,0.0152,0.015,0.0147,0.0134,0.0131,0.0132,0.0122,0.0121,0.0122,0.0108,0.0108,0.0134,0.0137,0.014,0.0152,0.0107,0,0,0,0,0,0.0155,0.0164,0.0162,0.017,0.0171,0.0165,0.0164,0.0161,0.0157,0.0155,0.0147,0.0137,0.0133,0.0131,0.0124,0.0128,0.0115,0.0129,0.0132,0.0134,0.0143,0.0131,0.0133,0.0105,0.0105,0.0105,0,0,0.0158,0.0161,0.0165,0.0172,0.017,0.018,0.0164,0.0168,0.0177,0.0153,0.0161,0.0147,0.0135,0.0138,0.0137,0.0132,0.0135,0.0135,0.0137,0.0144,0.0131,0.0134,0.0137,0.0105,0.0105,0.0105,0,0,0.0173,0.0174,0.0188,0.0191,0.0193,0.0191,0.0193,0.019,0.0191,0.0197,0.018,0.0172,0.0166,0.0159,0.0155,0.0169,0.0149,0.0162,0.0189,0.0178,0.018,0.0182,0.0167,0.0167,0.0166,0.0166,0.0166,0,0.0176,0.0196,0.0191,0.0206,0.0213,0.0198,0.0216,0.0216,0.0213,0.0217,0.0205,0.0193,0.0178,0.0184,0.0186,0.0176,0.0164,0.0179,0.0182,0.0184,0.0185,0.0169,0.0169,0.0167,0.0167,0.0167,0.0167,0,0.0203,0.0218,0.0227,0.0243,0.0249,0.0261,0.0262,0.0266,0.0261,0.0258,0.026,0.0239,0.0232,0.0223,0.021,0.0213,0.0199,0.0186,0.0176,0.0191,0.0172,0.0171,0.017,0.0169,0.0169,0.0168,0,0,0.0218,0.0242,0.0246,0.0264,0.0272,0.0283,0.0299,0.0313,0.0329,0.0314,0.0331,0.031,0.029,0.0284,0.026,0.0249,0.0242,0.0225,0.0223,0.0214,0.0213,0.0211,0.021,0.0229,0.0229,0.0229,0.0195,0,0.0243,0.0281,0.0285,0.0322,0.0342,0.034,0.036,0.0368,0.0368,0.0378,0.0353,0.0357,0.0316,0.0314,0.0294,0.0259,0.0242,0.0252,0.0197,0.0196,0.0196,0.021,0.0229,0.0201,0.0195,0.0194,0.0194,0,0.0273,0.0295,0.0337,0.0372,0.0382,0.04,0.0432,0.0448,0.0453,0.0453,0.0442,0.042,0.0401,0.0364,0.0309,0.0317,0.0268,0.0236,0.0234,0.0221,0.0193,0.0185,0.0199,0.0193,0.0193,0.0193,0.0193,0,0.0297,0.0335,0.0373,0.0384,0.0417,0.0439,0.0457,0.0472,0.0498,0.0501,0.0516,0.0479,0.0472,0.0409,0.0334,0.0323,0.0273,0.0247,0.0198,0.0197,0.0197,0.0196,0.0207,0.0207,0.0207,0.0207,0.0207,0,0.0328,0.0358,0.0389,0.0411,0.0462,0.0472,0.0523,0.0533,0.0558,0.0598,0.0556,0.0576,0.0484,0.0442,0.036,0.0283,0.0289,0.021,0.0192,0.0209,0.021,0.0191,0.019,0.0206,0.0206,0.0206,0.0206,0,0.0351,0.037,0.0417,0.0458,0.0477,0.0513,0.057,0.0606,0.0621,0.0673,0.0679,0.0653,0.0604,0.0507,0.0411,0.0328,0.0247,0.0214,0.024,0.0226,0.0168,0.0169,0.0157,0.0157,0.0157,0.0156,0.0156,0,0.0368,0.0394,0.0452,0.0484,0.0507,0.0561,0.0604,0.0637,0.0681,0.0726,0.0757,0.0726,0.0718,0.0573,0.0433,0.0298,0.0262,0.0208,0.0188,0.0181,0.0165,0.0166,0.0167,0.0197,0.0197,0.0197,0.0197,0,0.0397,0.0417,0.0456,0.0522,0.0574,0.0637,0.07,0.0745,0.0795,0.0839,0.0888,0.0885,0.0764,0.0639,0.0451,0.0352,0.0231,0.0207,0.02,0.021,0.0217,0.0202,0.0202,0.0199,0.0198,0.0198,0.0198,0.0198,0.0419,0.0449,0.05,0.0565,0.0626,0.0706,0.0761,0.0831,0.0911,0.0978,0.0977,0.0972,0.0829,0.0599,0.0433,0.0251,0.0262,0.018,0.0181,0.018,0.0195,0.0201,0.0182,0.0182,0.0182,0.0182,0.0182,0,0.0445,0.0482,0.0539,0.0617,0.0684,0.0716,0.0822,0.0879,0.0975,0.1029,0.1066,0.0929,0.0797,0.062,0.0371,0.0219,0.0197,0.0149,0.016,0.0161,0.0161,0.0174,0.0156,0.0155,0.0155,0.0154,0,0,0.0459,0.0513,0.0542,0.0649,0.0706,0.0803,0.0864,0.0949,0.1013,0.1061,0.1057,0.1046,0.0854,0.0657,0.0458,0.031,0.0261,0.0269,0.031,0.0349,0.0351,0.0205,0.023,0,0,0,0,0]}],[{"header":{"parameterUnit":"m.s-1","parameterCategory":2,"la1":30.2991,"la2":30.254,"lo1":-89.0895,"lo2":-89.0444,"dy":0.0017,"dx":0.0017,"nx":28,"ny":28,"refTime":"2024-06-06T09:00:00:Z","depth":"4","parameterNumber":2,"parameterNumberName":"U-component_of_CURRENTS"},"data":[0,0,0,0,0,0,0,0,0,0,0,0,0,0,0,0,0,0,0,0,0,0,0,0,0,0,0,0,0,0,0,0,0,0,0,0,0,0,0,0,0,0,0,0,0,0,0,0,0,0,0,0,0,0,0,0,0,0,0.1162,0.1162,0,0.1193,0.1193,0.1193,0.1227,0.1227,0.1228,0.1228,0.1281,0.1282,0.1283,0,0,0,0,0,0,0,0,0,0,0,0,0,0.1137,0.1137,0.1162,0.1162,0.1163,0.1193,0.1193,0.1193,0.1227,0.1227,0.1228,0.1229,0.1281,0.1282,0.1283,0,0,0,0,0,0,0,0,0,0,0,0,0,0.1154,0.1137,0.1162,0.1184,0.1186,0.1193,0.1193,0.1193,0.1226,0.1227,0.1228,0.1229,0.128,0.1281,0.1283,0.1274,0,0,0.1287,0.1287,0,0,0,0,0,0,0,0,0.1153,0.1155,0.118,0.1182,0.1185,0.1208,0.1203,0.1222,0.1226,0.121,0.1228,0.1229,0.1258,0.1261,0.1264,0.1276,0.1278,0.1287,0.1288,0.1288,0.1289,0,0,0,0,0,0,0,0.1152,0.1154,0.1173,0.118,0.1183,0.1194,0.1197,0.1207,0.1229,0.1212,0.1214,0.1219,0.126,0.1262,0.1265,0.1279,0.1287,0.1288,0.1289,0.1289,0.1367,0.1368,0,0,0,0,0,0,0.1149,0.1153,0.1172,0.1174,0.1172,0.1194,0.1197,0.1199,0.1228,0.1234,0.1218,0.122,0.126,0.1264,0.1267,0.1329,0.1288,0.1289,0.129,0.1366,0.1367,0.1369,0,0,0,0,0,0,0.1148,0.115,0.1171,0.1165,0.1169,0.1193,0.1194,0.1199,0.1228,0.1233,0.1239,0.1246,0.1261,0.1265,0.1301,0.1329,0.129,0.1291,0.1364,0.1366,0.1368,0.1408,0,0,0,0,0,0,0.1147,0.115,0.1164,0.1165,0.1169,0.1191,0.1194,0.1199,0.1228,0.1232,0.1259,0.1263,0.1262,0.13,0.1303,0.133,0.1292,0.1363,0.1365,0.1367,0.1405,0.1411,0.1417,0,0,0,0,0,0.1146,0.1155,0.1164,0.1167,0.1182,0.1192,0.1195,0.1215,0.1229,0.1244,0.1267,0.1263,0.1317,0.1302,0.1305,0.1334,0.1362,0.1364,0.1367,0.1403,0.141,0.1416,0,0,0,0,0,0,0.1153,0.1159,0.1169,0.1181,0.1195,0.1199,0.1218,0.1229,0.1258,0.1272,0.1277,0.1283,0.1325,0.1324,0.1307,0.1364,0.134,0.1344,0.1366,0.1373,0.1378,0.1377,0.1293,0,0,0,0,0,0.116,0.117,0.1177,0.1192,0.12,0.1215,0.1227,0.1241,0.1258,0.1273,0.129,0.1312,0.1334,0.1351,0.1365,0.1395,0.1394,0.1417,0.1423,0.1427,0.1429,0.1456,0.1463,0.1378,0.1378,0.1378,0,0,0.1167,0.1173,0.1181,0.1195,0.1209,0.1223,0.1225,0.1251,0.1272,0.1273,0.1317,0.1333,0.1347,0.1381,0.14,0.1388,0.1452,0.1431,0.1435,0.1434,0.1459,0.1468,0.1475,0.138,0.138,0.138,0,0,0.1177,0.1194,0.1204,0.1217,0.1241,0.1249,0.1262,0.1281,0.1303,0.134,0.1349,0.1384,0.1415,0.1429,0.1439,0.1485,0.148,0.1496,0.1525,0.155,0.1557,0.1563,0.1572,0.1579,0.1499,0.15,0.15,0,0.1192,0.12,0.1211,0.1224,0.124,0.1263,0.128,0.1301,0.1333,0.1354,0.1363,0.1423,0.1437,0.1475,0.1495,0.1498,0.1507,0.1496,0.1557,0.1563,0.1569,0.1576,0.1583,0.1502,0.1502,0.1501,0.1501,0,0.1198,0.1219,0.1228,0.1252,0.1271,0.1291,0.1316,0.1348,0.1381,0.14,0.1455,0.1476,0.1511,0.1524,0.1527,0.1576,0.1567,0.156,0.1537,0.158,0.1585,0.1591,0.1505,0.1504,0.1504,0.1503,0,0,0.1194,0.1227,0.1234,0.125,0.1288,0.13,0.1345,0.1382,0.1417,0.1459,0.1502,0.1547,0.1566,0.1579,0.1589,0.1613,0.1663,0.161,0.161,0.1614,0.1715,0.1589,0.1583,0.167,0.1672,0.1673,0.1702,0,0.1201,0.1225,0.1244,0.1279,0.1293,0.1331,0.1366,0.1409,0.1451,0.1499,0.1537,0.1583,0.1584,0.1612,0.1638,0.1661,0.1682,0.1655,0.1677,0.1677,0.1556,0.1587,0.1677,0.1706,0.1707,0.1708,0.1709,0,0.1197,0.1215,0.1247,0.1289,0.1301,0.1333,0.1395,0.1431,0.15,0.1535,0.1589,0.1618,0.1673,0.1665,0.1721,0.1708,0.1717,0.1725,0.1727,0.1597,0.1563,0.1656,0.172,0.1719,0.1719,0.1718,0.1717,0,0.1172,0.1215,0.1242,0.1257,0.131,0.1345,0.1384,0.145,0.1484,0.1568,0.1606,0.1665,0.1707,0.1735,0.176,0.1752,0.1807,0.1795,0.1686,0.1677,0.1764,0.1757,0.1828,0.1828,0.1828,0.1828,0.1828,0,0.1153,0.1178,0.1239,0.1252,0.1293,0.1341,0.1395,0.1444,0.1516,0.1554,0.1628,0.1658,0.1731,0.1767,0.1777,0.1746,0.1824,0.169,0.1676,0.178,0.1775,0.1768,0.1761,0.1829,0.1829,0.1828,0.1828,0,0.1115,0.1155,0.1189,0.1256,0.1282,0.1316,0.1394,0.1426,0.1508,0.1564,0.1595,0.1675,0.1715,0.1761,0.1806,0.1752,0.1745,0.1714,0.1821,0.1813,0.1592,0.1587,0.1588,0.1584,0.1581,0.1578,0.1575,0,0.1092,0.1108,0.1184,0.1208,0.1245,0.1302,0.1336,0.1417,0.1448,0.1552,0.1566,0.164,0.168,0.1641,0.1697,0.1697,0.1677,0.1655,0.1619,0.1582,0.1569,0.1569,0.1569,0.1569,0.1568,0.1568,0.1567,0,0.1049,0.1092,0.1121,0.117,0.1213,0.1245,0.1303,0.1312,0.14,0.1486,0.1494,0.1506,0.1541,0.1559,0.157,0.1568,0.1659,0.1618,0.1625,0.1591,0.1559,0.155,0.1553,0.1554,0.1556,0.1557,0.1558,0,0.1026,0.1036,0.1085,0.1114,0.1164,0.1173,0.1209,0.1234,0.1268,0.1377,0.1373,0.145,0.1524,0.1492,0.1504,0.1489,0.1462,0.1405,0.1423,0.1437,0.1372,0.1308,0.1214,0,0,0,0,0,0.0992,0.0993,0.102,0.1041,0.1086,0.1113,0.1176,0.1213,0.1294,0.1263,0.1312,0.1334,0.1336,0.1372,0.1326,0.1439,0.1475,0.1378,0.1421,0.1486,0.15,0.1436,0,0,0,0,0,0,0.0969,0.0996,0.0995,0.0973,0.0974,0.1008,0.1046,0.1102,0.1085,0.1174,0.1184,0.1245,0.1273,0.135,0.1299,0.131,0.1305,0.1424,0.142,0.1478,0.1491,0.1502,0.1441,0,0,0,0,0]},{"header":{"parameterUnit":"m.s-1","parameterCategory":2,"la1":30.2991,"la2":30.254,"lo1":-89.0895,"lo2":-89.0444,"dy":0.0017,"dx":0.0017,"nx":28,"ny":28,"refTime":"2024-06-06T09:00:00:Z","depth":"4","parameterNumber":3,"parameterNumberName":"V-component_of_CURRENTS"},"data":[0,0,0,0,0,0,0,0,0,0,0,0,0,0,0,0,0,0,0,0,0,0,0,0,0,0,0,0,0,0,0,0,0,0,0,0,0,0,0,0,0,0,0,0,0,0,0,0,0,0,0,0,0,0,0,0,0,0,0.0136,0.0136,0,0.0131,0.0131,0.0131,0.0128,0.0128,0.0128,0.0128,0.0117,0.0117,0.0117,0,0,0,0,0,0,0,0,0,0,0,0,0,0.0125,0.0126,0.0136,0.0136,0.0136,0.0131,0.0131,0.0131,0.0128,0.0128,0.0128,0.0128,0.0117,0.0117,0.0117,0,0,0,0,0,0,0,0,0,0,0,0,0,0.0127,0.0126,0.0136,0.0133,0.0133,0.0131,0.0131,0.0131,0.0128,0.0128,0.0128,0.0128,0.0117,0.0117,0.0117,0.0117,0,0,0.0116,0.0115,0,0,0,0,0,0,0,0,0.0127,0.0127,0.0134,0.0133,0.0133,0.0129,0.0123,0.0125,0.0128,0.0131,0.0128,0.0128,0.012,0.012,0.012,0.0116,0.0116,0.0116,0.0115,0.0115,0.0115,0,0,0,0,0,0,0,0.0127,0.0128,0.0135,0.0134,0.0133,0.0126,0.0126,0.0123,0.0127,0.0131,0.013,0.0128,0.012,0.012,0.012,0.0115,0.0116,0.0115,0.0115,0.0115,0.0113,0.0114,0,0,0,0,0,0,0.0127,0.0128,0.0135,0.0134,0.0129,0.0126,0.0127,0.0131,0.0127,0.0126,0.0128,0.0128,0.0121,0.012,0.0119,0.0129,0.0115,0.0115,0.0115,0.0113,0.0114,0.0114,0,0,0,0,0,0,0.0127,0.0128,0.0135,0.013,0.013,0.0126,0.0132,0.0131,0.0134,0.0125,0.0124,0.0132,0.0121,0.012,0.0121,0.0128,0.0115,0.0114,0.0113,0.0113,0.0114,0.0141,0,0,0,0,0,0,0.0127,0.0128,0.0133,0.013,0.013,0.0139,0.0132,0.0131,0.0132,0.0132,0.0127,0.0126,0.0121,0.0122,0.0121,0.0127,0.0114,0.0113,0.0113,0.0114,0.014,0.0143,0.0145,0,0,0,0,0,0.0126,0.0134,0.0133,0.0134,0.0137,0.0139,0.0139,0.0136,0.0132,0.0138,0.0133,0.0126,0.0123,0.0122,0.0121,0.0127,0.0113,0.0113,0.0114,0.0139,0.0142,0.0145,0,0,0,0,0,0,0.0131,0.0134,0.0133,0.0141,0.0142,0.0139,0.0142,0.0139,0.014,0.0139,0.013,0.0129,0.0132,0.0125,0.0124,0.0127,0.0116,0.0116,0.0136,0.0138,0.0141,0.0151,0.0114,0,0,0,0,0,0.0134,0.0142,0.0141,0.0148,0.0149,0.0146,0.0147,0.0146,0.0144,0.0145,0.014,0.0135,0.0132,0.0132,0.0128,0.0132,0.0122,0.0134,0.0136,0.0138,0.0145,0.0135,0.0137,0.0115,0.0115,0.0115,0,0,0.0137,0.014,0.0144,0.0149,0.015,0.0158,0.0147,0.0151,0.016,0.0143,0.0152,0.0142,0.0135,0.0139,0.0139,0.0134,0.0138,0.0138,0.014,0.0147,0.0136,0.0138,0.014,0.0115,0.0115,0.0115,0,0,0.0149,0.0151,0.0162,0.0165,0.0168,0.0167,0.017,0.0169,0.0172,0.0178,0.0167,0.0162,0.016,0.0155,0.0153,0.0164,0.0149,0.016,0.0182,0.0171,0.0173,0.0175,0.0161,0.0161,0.0162,0.0162,0.0162,0,0.0152,0.0168,0.0165,0.0176,0.0183,0.0173,0.0188,0.019,0.0189,0.0195,0.0186,0.018,0.017,0.0176,0.0178,0.017,0.016,0.0173,0.0175,0.0176,0.0177,0.0162,0.0162,0.0163,0.0163,0.0163,0.0163,0,0.0172,0.0185,0.0192,0.0205,0.0212,0.0222,0.0224,0.023,0.0229,0.0228,0.0233,0.0217,0.0214,0.0207,0.0197,0.02,0.0188,0.0178,0.017,0.0181,0.0164,0.0164,0.0165,0.0165,0.0165,0.0164,0,0,0.0182,0.0203,0.0206,0.0222,0.023,0.024,0.0255,0.0268,0.0282,0.0273,0.0289,0.0275,0.0261,0.0257,0.0239,0.0229,0.0221,0.0209,0.0208,0.0198,0.0196,0.0184,0.0182,0.0211,0.0211,0.0211,0.0179,0,0.0201,0.0231,0.0236,0.0268,0.0285,0.0286,0.0304,0.0312,0.0315,0.0325,0.0307,0.0313,0.0282,0.0282,0.0265,0.0236,0.0221,0.023,0.0184,0.0183,0.0174,0.0182,0.0211,0.0179,0.0179,0.0178,0.0178,0,0.0223,0.0241,0.0277,0.0309,0.0317,0.0335,0.0364,0.0379,0.0385,0.0387,0.0381,0.0364,0.035,0.0322,0.0275,0.0283,0.0242,0.0215,0.0213,0.0194,0.017,0.0165,0.0177,0.0177,0.0177,0.0177,0.0177,0,0.0239,0.0272,0.0305,0.0315,0.0345,0.0367,0.0385,0.04,0.0423,0.0429,0.0441,0.0413,0.0409,0.0357,0.0293,0.0286,0.024,0.0221,0.0172,0.017,0.0177,0.0176,0.0188,0.0188,0.0188,0.0188,0.0188,0,0.0259,0.0287,0.0318,0.0337,0.0382,0.0394,0.044,0.0452,0.0474,0.0505,0.0476,0.0487,0.0418,0.0381,0.0312,0.0242,0.0252,0.018,0.0164,0.0188,0.0189,0.0176,0.0175,0.0187,0.0187,0.0187,0.0187,0,0.0274,0.0293,0.0334,0.0374,0.0393,0.0427,0.0481,0.0511,0.0527,0.0566,0.0572,0.0549,0.0502,0.0425,0.0344,0.0276,0.0205,0.0175,0.021,0.0196,0.0135,0.0135,0.0119,0.0118,0.0117,0.0117,0.0117,0,0.0283,0.0306,0.0363,0.0392,0.0415,0.0466,0.0504,0.0537,0.057,0.0603,0.0623,0.0594,0.0565,0.0443,0.0355,0.0228,0.0203,0.0158,0.0141,0.0143,0.0129,0.0131,0.0132,0.0116,0.0116,0.0116,0.0116,0,0.03,0.0322,0.0356,0.0416,0.0464,0.0519,0.0574,0.0602,0.0642,0.0659,0.0663,0.0604,0.0551,0.0447,0.0352,0.0257,0.0183,0.0152,0.0152,0.0136,0.0139,0.0126,0.0129,0.0114,0.0114,0.0114,0.0114,0,0.0314,0.0338,0.0383,0.0438,0.0499,0.0556,0.0585,0.0625,0.0659,0.0689,0.0689,0.063,0.0599,0.0463,0.0375,0.0283,0.025,0.0201,0.0197,0.0198,0.0225,0.0242,0.024,0,0,0,0,0,0.0323,0.0351,0.04,0.046,0.052,0.0558,0.0626,0.0649,0.0688,0.0693,0.0692,0.064,0.0517,0.0468,0.0374,0.0355,0.0229,0.0239,0.0169,0.0104,0.0106,0.0123,0,0,0,0,0,0,0.0329,0.0374,0.0398,0.0471,0.0511,0.0581,0.0626,0.0652,0.0655,0.0676,0.0615,0.0595,0.0479,0.0568,0.0364,0.0339,0.0276,0.0189,0.0186,0.0103,0.0105,0.0106,0.0124,0,0,0,0,0]}]]